Вернуться в каталог

CZ-4B DEB

АктивенSSO
NORAD 35573·DEBRIS·🇨🇳 China

Запущен Oct 25, 2008 с Taiyuan Satellite Launch Center

Loading…

Ближайшие Пролёты (ближайшие 24 часа)

TLE

СвежийSource: Space-Track

Эпоха: Sep 14, 2026, 12:59 UTC

1 35573U 08053J   26257.54161279  .00033529  00000-0  11097-2 0  9998
2 35573  97.7930   6.6917 0043938   7.5621 352.6272 15.30305000947461

Отслеживайте CZ-4B DEB в реальном времени с AllMySat

Download on the App Store